• In Uzbekistan
  • List of Countries
  • For 7 days
  • Water Temperature
  • Satellite Maps
  • Weather Map
  • Weather Widgets
  • user-avatar
    Login

    Hourly Weather Ilebo

    Today, 20 November, Monday

    Time Temperature Precipitation Wind Pressure Humidity
    00:00 +24°C° 1.2 mm 1 mps 722 mmHg 92%
    01:00 +24°C° 1.2 mm 1 mps 722 mmHg 93%
    02:00 +24°C° 0.1 mm 1 mps 722 mmHg 94%
    03:00 +24°C° 0.1 mm 1 mps 722 mmHg 95%
    04:00 +23°C° 0.1 mm 1 mps 722 mmHg 95%
    05:00 +24°C° 0.1 mm 1 mps 722 mmHg 93%
    06:00 +25°C° 0.1 mm 1 mps 722 mmHg 90%
    07:00 +25°C° 0.1 mm 2 mps 723 mmHg 88%
    08:00 +28°C° 0.1 mm 2 mps 723 mmHg 78%
    09:00 +30°C° 0.1 mm 2 mps 723 mmHg 68%
    10:00 +32°C° 0.1 mm 2 mps 723 mmHg 59%
    11:00 +33°C° 1.1 mm 1 mps 723 mmHg 56%
    12:00 +34°C° 1.1 mm 1 mps 723 mmHg 54%
    13:00 +33°C° 1.1 mm 0 mps 722 mmHg 51%
    14:00 +32°C° 0 mm 0 mps 721 mmHg 52%
    15:00 +31°C° 0 mm 0 mps 721 mmHg 53%
    16:00 +31°C° 0 mm 0 mps 720 mmHg 53%
    17:00 +31°C° 0 mm 1 mps 720 mmHg 59%
    18:00 +29°C° 0 mm 1 mps 721 mmHg 65%
    19:00 +27°C° 0 mm 1 mps 721 mmHg 70%
    20:00 +27°C° 0.7 mm 1 mps 721 mmHg 75%
    21:00 +26°C° 0.7 mm 1 mps 722 mmHg 79%
    22:00 +26°C° 0.7 mm 1 mps 722 mmHg 84%
    23:00 +25°C° 0.1 mm 1 mps 722 mmHg 85%

    Tomorrow, 21 November, Tuesday

    Time Temperature Precipitation Wind Pressure Humidity
    00:00 +25°C° 0.1 mm 1 mps 721 mmHg 86%
    01:00 +25°C° 0.1 mm 1 mps 721 mmHg 87%
    02:00 +24°C° 0 mm 1 mps 721 mmHg 88%
    03:00 +24°C° 0 mm 1 mps 721 mmHg 89%
    04:00 +24°C° 0 mm 1 mps 721 mmHg 90%
    05:00 +25°C° 0 mm 1 mps 721 mmHg 87%
    06:00 +26°C° 0 mm 1 mps 721 mmHg 83%
    07:00 +26°C° 0 mm 1 mps 722 mmHg 80%
    08:00 +29°C° 0 mm 1 mps 722 mmHg 70%
    09:00 +32°C° 0 mm 1 mps 722 mmHg 59%
    10:00 +35°C° 0 mm 1 mps 722 mmHg 48%
    11:00 +36°C° 0 mm 1 mps 722 mmHg 43%
    12:00 +37°C° 0 mm 1 mps 721 mmHg 37%
    13:00 +39°C° 0 mm 2 mps 720 mmHg 32%
    14:00 +38°C° 0 mm 2 mps 719 mmHg 35%
    15:00 +37°C° 0 mm 2 mps 719 mmHg 39%
    16:00 +35°C° 0 mm 1 mps 719 mmHg 43%
    17:00 +33°C° 0 mm 1 mps 719 mmHg 47%
    18:00 +31°C° 0 mm 1 mps 719 mmHg 52%
    19:00 +29°C° 0 mm 1 mps 720 mmHg 56%
    20:00 +29°C° 0 mm 1 mps 720 mmHg 58%
    21:00 +26°C° 0 mm 0 mps 721 mmHg 60%
    22:00 +26°C° 0 mm 0 mps 721 mmHg 62%
    23:00 +27°C° 0 mm 1 mps 721 mmHg 65%

    Day after tomorrow, 22 November, Wednesday

    Time Temperature Precipitation Wind Pressure Humidity
    00:00 +27°C° 0 mm 1 mps 720 mmHg 67%
    01:00 +26°C° 0 mm 1 mps 720 mmHg 69%
    02:00 +26°C° 0 mm 1 mps 720 mmHg 72%
    03:00 +25°C° 0 mm 1 mps 720 mmHg 75%
    04:00 +24°C° 0 mm 1 mps 719 mmHg 79%
    05:00 +25°C° 0 mm 1 mps 720 mmHg 76%
    06:00 +24°C° 0 mm 0 mps 721 mmHg 74%
    07:00 +25°C° 0 mm 0 mps 722 mmHg 71%
    08:00 +29°C° 0 mm 0 mps 722 mmHg 61%
    09:00 +32°C° 0 mm 0 mps 722 mmHg 51%
    10:00 +35°C° 0 mm 0 mps 723 mmHg 42%
    11:00 +36°C° 0 mm 0 mps 722 mmHg 37%
    12:00 +40°C° 0 mm 1 mps 721 mmHg 33%
    13:00 +40°C° 0 mm 1 mps 720 mmHg 29%
    14:00 +39°C° 0 mm 1 mps 720 mmHg 30%
    15:00 +37°C° 0 mm 1 mps 719 mmHg 32%
    16:00 +37°C° 0 mm 1 mps 719 mmHg 33%
    17:00 +34°C° 0 mm 1 mps 719 mmHg 37%
    18:00 +32°C° 0 mm 1 mps 719 mmHg 41%
    19:00 +30°C° 0 mm 1 mps 720 mmHg 45%
    20:00 +27°C° 0 mm 0 mps 720 mmHg 46%
    21:00 +26°C° 0 mm 0 mps 720 mmHg 47%
    22:00 +26°C° 0 mm 0 mps 720 mmHg 48%
    23:00 +25°C° 0 mm 0 mps 720 mmHg 49%

    23 November, Thursday

    Time Temperature Precipitation Wind Pressure Humidity
    00:00 +24°C° 0 mm 0 mps 720 mmHg 50%
    01:00 +24°C° 0 mm 0 mps 719 mmHg 51%
    02:00 +23°C° 0 mm 0 mps 719 mmHg 53%
    03:00 +25°C° 0 mm 1 mps 719 mmHg 56%
    04:00 +24°C° 0 mm 1 mps 720 mmHg 58%
    05:00 +25°C° 0 mm 1 mps 720 mmHg 60%
    06:00 +26°C° 0 mm 1 mps 721 mmHg 62%
    07:00 +27°C° 0 mm 2 mps 722 mmHg 63%
    08:00 +29°C° 0 mm 1 mps 722 mmHg 58%
    09:00 +32°C° 0 mm 1 mps 722 mmHg 52%
    10:00 +34°C° 0 mm 1 mps 723 mmHg 46%
    11:00 +36°C° 0 mm 1 mps 722 mmHg 41%
    12:00 +39°C° 0 mm 1 mps 721 mmHg 35%
    13:00 +37°C° 0 mm 0 mps 720 mmHg 30%
    14:00 +36°C° 0 mm 0 mps 720 mmHg 32%
    15:00 +37°C° 0 mm 1 mps 719 mmHg 33%
    16:00 +35°C° 0 mm 1 mps 719 mmHg 35%
    17:00 +33°C° 0 mm 1 mps 719 mmHg 39%
    18:00 +31°C° 0 mm 1 mps 720 mmHg 44%
    19:00 +29°C° 0 mm 1 mps 720 mmHg 49%
    20:00 +29°C° 0 mm 1 mps 720 mmHg 52%
    21:00 +28°C° 0 mm 1 mps 721 mmHg 56%
    22:00 +27°C° 0 mm 1 mps 721 mmHg 59%
    23:00 +27°C° 0 mm 1 mps 721 mmHg 63%

    24 November, Friday

    Time Temperature Precipitation Wind Pressure Humidity
    00:00 +26°C° 0 mm 1 mps 720 mmHg 67%
    01:00 +25°C° 0 mm 1 mps 720 mmHg 71%
    02:00 +25°C° 0 mm 1 mps 720 mmHg 74%
    03:00 +25°C° 0 mm 1 mps 720 mmHg 78%
    04:00 +24°C° 0 mm 1 mps 720 mmHg 81%
    05:00 +25°C° 0 mm 1 mps 721 mmHg 79%
    06:00 +26°C° 0 mm 1 mps 722 mmHg 77%
    07:00 +27°C° 0 mm 1 mps 722 mmHg 75%
    08:00 +29°C° 0 mm 1 mps 722 mmHg 66%
    09:00 +31°C° 0 mm 1 mps 722 mmHg 58%
    10:00 +34°C° 0 mm 1 mps 722 mmHg 49%
    11:00 +35°C° 0 mm 1 mps 722 mmHg 44%
    12:00 +36°C° 0 mm 1 mps 721 mmHg 39%
    13:00 +39°C° 0 mm 1 mps 720 mmHg 34%
    14:00 +37°C° 0 mm 1 mps 720 mmHg 35%
    15:00 +34°C° 0 mm 0 mps 719 mmHg 37%
    16:00 +32°C° 0 mm 0 mps 719 mmHg 38%
    17:00 +31°C° 0 mm 0 mps 720 mmHg 41%
    18:00 +29°C° 0 mm 0 mps 720 mmHg 45%
    19:00 +28°C° 0 mm 0 mps 720 mmHg 48%
    20:00 +27°C° 0 mm 0 mps 720 mmHg 50%
    21:00 +27°C° 0 mm 0 mps 721 mmHg 53%
    22:00 +26°C° 0 mm 0 mps 721 mmHg 55%
    23:00 +25°C° 0 mm 0 mps 720 mmHg 57%

    25 November, Saturday

    Time Temperature Precipitation Wind Pressure Humidity
    00:00 +25°C° 0 mm 0 mps 720 mmHg 60%
    01:00 +26°C° 0 mm 1 mps 720 mmHg 63%
    02:00 +24°C° 0 mm 0 mps 720 mmHg 65%
    03:00 +23°C° 0 mm 0 mps 720 mmHg 67%
    04:00 +23°C° 0 mm 0 mps 720 mmHg 70%
    05:00 +25°C° 0 mm 1 mps 721 mmHg 70%
    06:00 +26°C° 0 mm 1 mps 722 mmHg 70%
    07:00 +26°C° 0 mm 2 mps 723 mmHg 71%
    08:00 +27°C° 0 mm 2 mps 723 mmHg 68%
    09:00 +28°C° 0 mm 2 mps 723 mmHg 66%
    10:00 +30°C° 0 mm 2 mps 723 mmHg 63%
    11:00 +30°C° 0.2 mm 2 mps 722 mmHg 60%
    12:00 +31°C° 0.2 mm 1 mps 722 mmHg 57%
    13:00 +32°C° 0.2 mm 1 mps 721 mmHg 54%
    14:00 +32°C° 0 mm 1 mps 721 mmHg 52%
    15:00 +32°C° 0 mm 1 mps 721 mmHg 50%
    16:00 +32°C° 0 mm 1 mps 721 mmHg 49%
    17:00 +30°C° 0 mm 1 mps 721 mmHg 54%
    18:00 +28°C° 0 mm 1 mps 722 mmHg 59%
    19:00 +25°C° 0 mm 0 mps 722 mmHg 65%
    20:00 +25°C° 0 mm 0 mps 722 mmHg 64%
    21:00 +24°C° 0 mm 0 mps 723 mmHg 64%
    22:00 +24°C° 0 mm 0 mps 723 mmHg 63%
    23:00 +26°C° 0 mm 1 mps 722 mmHg 63%
    Show more